Home   Weather   Sylvania   Past weeks
Flag for USA

Past Weather in Sylvania, Ohio, USA — Yesterday and Last 2 Weeks

Now
29 °F

Clear.


Feels Like: 29 °F
Forecast: 38 / 26 °F
Wind: No wind

Location: Toledo Suburban Airport

Current Time: Jan 23, 2020 at 5:43:30 am

Latest Report: Jan 23, 2020 at 5:16 am


Visibility: 10 mi

Pressure: 30.20 "Hg

Humidity: 72%

Dew Point: 21 °F

Location of SylvaniaLocation

Past Weather in Sylvania — Graph

°F

Sylvania Temperature Yesterday

Maximum temperature yesterday: 32 °F (at 4:15 pm)
Minimum temperature yesterday: 19 °F (at 6:55 am)
Average temperature yesterday: 27 °F

High & Low Weather Summary for the Past Weeks

 TemperatureHumidityPressure
High59 °F (Jan 11, 8:36 am)98% (Jan 13, 3:15 am)30.83 "Hg (Jan 13, 3:15 am)
Low11 °F (Jan 20, 3:36 am)41% (Jan 9, 1:16 pm)29.57 "Hg (Jan 18, 2:35 pm)
Average31 °F77%30.25 "Hg
* Reported Jan 8 4:16 am — Jan 23 4:35 am, Sylvania. Weather by CustomWeather, © 2020

Note: Actual official high and low records may vary slightly from our data, if they occured in-between our weather recording intervals... More about our weather records

Sylvania Weather History for the Previous 24 Hours

Scroll right to see more
 ConditionsComfort  
Time TempWeatherWind HumidityBarometerVisibility
4:35 am
Thu, Jan 23
31 °FPassing clouds.No wind64%30.21 "Hg10 mi
4:15 am31 °FClear.No wind65%30.20 "Hg10 mi
3:55 am31 °FClear.No wind65%30.21 "Hg10 mi
3:35 am31 °FPassing clouds.5 mph66%30.21 "Hg10 mi
3:15 am31 °FPassing clouds.3 mph65%30.22 "Hg10 mi
2:55 am31 °FPassing clouds.5 mph68%30.22 "Hg10 mi
2:35 am31 °FClear.3 mph68%30.22 "Hg10 mi
2:15 am31 °FPassing clouds.3 mph68%30.22 "Hg10 mi
1:55 am31 °FPassing clouds.No wind68%30.22 "Hg10 mi
1:35 am31 °FClear.No wind67%30.22 "Hg10 mi
1:16 am31 °FClear.3 mph67%30.22 "Hg10 mi
12:56 am31 °FClear.5 mph66%30.23 "Hg10 mi
12:35 am31 °FClear.3 mph67%30.22 "Hg10 mi
12:15 am31 °FClear.5 mph68%30.23 "Hg10 mi
11:56 pm
Wed, Jan 22
31 °FClear.5 mph69%30.24 "Hg10 mi
11:36 pm31 °FClear.5 mph69%30.24 "Hg10 mi
11:16 pm31 °FClear.5 mph69%30.24 "Hg10 mi
10:55 pm31 °FClear.7 mph69%30.24 "Hg10 mi
10:36 pm31 °FClear.6 mph69%30.25 "Hg10 mi
9:55 pm31 °FClear.6 mph69%30.25 "Hg10 mi
9:35 pm30 °FClear.6 mph69%30.25 "Hg10 mi
9:15 pm30 °FClear.3 mph67%30.25 "Hg10 mi
8:55 pm31 °FClear.No wind65%30.26 "Hg10 mi
8:35 pm31 °FClear.5 mph66%30.26 "Hg10 mi
8:15 pm31 °FClear.5 mph65%30.27 "Hg10 mi
7:56 pm31 °FClear.5 mph64%30.27 "Hg10 mi
7:35 pm31 °FClear.5 mph64%30.27 "Hg10 mi
7:16 pm31 °FClear.5 mph64%30.27 "Hg10 mi
6:55 pm31 °FClear.5 mph64%30.28 "Hg10 mi
6:35 pm31 °FClear.3 mph65%30.28 "Hg10 mi
6:15 pm31 °FClear.5 mph64%30.28 "Hg10 mi
5:55 pm32 °FClear.3 mph62%30.28 "Hg10 mi
5:35 pm32 °FSunny.6 mph60%30.28 "Hg10 mi
5:15 pm32 °FSunny.5 mph60%30.28 "Hg10 mi
4:35 pm32 °FSunny.10 mph59%30.28 "Hg10 mi
4:15 pm32 °FSunny.9 mph59%30.28 "Hg10 mi
3:56 pm32 °FSunny.9 mph58%30.27 "Hg10 mi
3:36 pm32 °FSunny.8 mph57%30.28 "Hg10 mi
3:15 pm32 °FSunny.8 mph59%30.28 "Hg10 mi
2:56 pm32 °FSunny.9 mph58%30.27 "Hg10 mi
2:36 pm32 °FSunny.9 mph57%30.28 "Hg10 mi
2:15 pm32 °FSunny.10 mph59%30.29 "Hg10 mi
1:36 pm32 °FSunny.12 mph57%30.31 "Hg10 mi
1:16 pm32 °FSunny.8 mph56%30.31 "Hg10 mi
12:56 pm31 °FSunny.8 mph56%30.33 "Hg10 mi
12:35 pm32 °FSunny.9 mph56%30.34 "Hg10 mi
12:15 pm31 °FSunny.9 mph55%30.35 "Hg10 mi
11:56 am31 °FSunny.8 mph57%30.36 "Hg10 mi
11:36 am30 °FSunny.8 mph58%30.37 "Hg10 mi
11:15 am28 °FSunny.8 mph62%30.37 "Hg10 mi
10:55 am27 °FSunny.10 mph63%30.36 "Hg10 mi
10:36 am26 °FSunny.12 mph64%30.36 "Hg10 mi
10:15 am25 °FSunny.5 mph67%30.36 "Hg10 mi
9:55 am24 °FSunny.9 mph70%30.36 "Hg10 mi
9:36 am23 °FSunny.6 mph73%30.35 "Hg10 mi
9:16 am22 °FSunny.8 mph74%30.35 "Hg10 mi
8:56 am21 °FSunny.8 mph78%30.35 "Hg10 mi
8:35 am20 °FSunny.6 mph80%30.36 "Hg10 mi
7:56 am19 °FSunny.5 mph82%30.36 "Hg10 mi
7:35 am20 °FClear.5 mph82%30.37 "Hg10 mi
7:15 am20 °FClear.5 mph81%30.37 "Hg10 mi
6:55 am19 °FClear.5 mph83%30.37 "Hg10 mi
6:35 am20 °FClear.3 mph83%30.37 "Hg10 mi
6:15 am20 °FClear.3 mph82%30.36 "Hg10 mi
5:55 am20 °FClear.3 mph81%30.36 "Hg10 mi
5:36 am21 °FClear.6 mph81%30.36 "Hg10 mi
5:16 am21 °FClear.5 mph81%30.36 "Hg10 mi
Weather by CustomWeather, © 2020

See weather overview

Advertising